Mackinac Island, MI

6:06 PM EDT on September 24, 2016 (GMT -0400)
Mackinac Island

Weather History for KMCD - June, 2013

Change the Weather History Date:

Friday, June 7, 2013

  Actual Average Record
Temperature  
Mean Temperature 58 °F -  
Max Temperature 70 °F 62 °F 80 °F (2008)
Min Temperature 45 °F 47 °F 39 °F (1983)
Degree Days  
Heating Degree Days 8    
Growing Degree Days 8 (Base 50)    
Moisture  
Dew Point 38 °F    
Average Humidity 48    
Maximum Humidity 71    
Minimum Humidity 25    
Precipitation  
Precipitation 0.00 in - - ()
Sea Level Pressure  
Sea Level Pressure 29.96 in    
Wind  
Wind Speed 6 mph (ENE)    
Max Wind Speed 10 mph    
Max Gust Speed -    
Visibility 10 miles    
Events      
Averages and records for this station are not official NWS values.
T = Trace of Precipitation, MM = Missing Value Source: NWS Daily Summary

Daily Weather History Graph

Daily Weather History Graph

Search for Another Location

Airport or City:

Trip Planner

Search our weather history database for the weather conditions in past years. The results will help you decide how hot, cold, wet, or windy it might be!

Date:

Astronomy

Jun. 07, 2013 Rise Set
Actual Time 5:49 AM EDT 9:26 PM EDT
Civil Twilight 5:11 AM EDT 10:04 PM EDT
Nautical Twilight 4:20 AM EDT 10:54 PM EDT
Astronomical Twilight 3:13 AM EDT 12:02 AM EDT
Moon 5:15 AM EDT (6/7) 8:36 PM EDT (6/7)
Length of Visible Light 16h 53m
Length of Day
15h 37m
Waning Crescent, 1% of the Moon is Illuminated
Jun 7
Waning Crescent
Jun 8
New
Jun 16
First Quarter
Jun 23
Full
Jun 30
Last Quarter

Hourly Weather History & Observations

Time (EDT) Temp. Windchill Dew Point Humidity Pressure Visibility Wind Dir Wind Speed Gust Speed Precip Events Conditions
12:13 AM 54.5 °F - 37.4 °F 52% 30.00 in 10.0 mi NNE 6.9 mph - N/A   Clear
12:34 AM 52.9 °F - 36.9 °F 55% 30.00 in 10.0 mi NNE 5.8 mph - N/A   Clear
12:54 AM 52.3 °F - 36.7 °F 55% 30.00 in 10.0 mi NNE 6.9 mph - N/A   Clear
1:13 AM 51.3 °F - 36.0 °F 56% 30.00 in 10.0 mi North 5.8 mph - N/A   Clear
1:34 AM 50.9 °F - 34.5 °F 54% 29.99 in 10.0 mi North 6.9 mph - N/A   Clear
1:54 AM 51.1 °F - 32.5 °F 49% 29.99 in 10.0 mi North 6.9 mph - N/A   Clear
2:14 AM 50.2 °F - 32.4 °F 50% 29.99 in 10.0 mi North 9.2 mph - N/A   Clear
2:34 AM 50.4 °F - 31.8 °F 49% 29.98 in 10.0 mi North 6.9 mph - N/A   Clear
2:54 AM 48.7 °F - 32.4 °F 53% 29.98 in 10.0 mi North 5.8 mph - N/A   Clear
3:14 AM 46.9 °F - 33.8 °F 60% 29.98 in 10.0 mi North 4.6 mph - N/A   Clear
3:34 AM 46.4 °F 45.2 °F 34.7 °F 64% 29.98 in 10.0 mi NNE 3.5 mph - N/A   Clear
3:54 AM 46.0 °F 44.8 °F 34.9 °F 65% 29.98 in 10.0 mi North 3.5 mph - N/A   Clear
4:14 AM 46.6 °F - 34.9 °F 64% 29.98 in 10.0 mi NW 5.8 mph - N/A   Clear
4:34 AM 45.3 °F 41.1 °F 35.6 °F 69% 29.97 in 10.0 mi North 8.1 mph - N/A   Clear
4:54 AM 47.8 °F - 36.5 °F 65% 29.98 in 10.0 mi NNW 4.6 mph - N/A   Clear
5:14 AM 46.6 °F - 34.7 °F 63% 29.97 in 10.0 mi NW 5.8 mph - N/A   Clear
5:34 AM 48.4 °F - 35.2 °F 60% 29.97 in 10.0 mi NW 4.6 mph - N/A   Clear
5:54 AM 47.3 °F - 36.0 °F 65% 29.97 in 10.0 mi NNW 5.8 mph - N/A   Clear
6:14 AM 46.8 °F - 36.5 °F 67% 29.97 in 10.0 mi NNE 5.8 mph - N/A   Clear
6:34 AM 47.7 °F - 38.8 °F 71% 29.97 in 10.0 mi NNE 10.4 mph - N/A   Clear
6:54 AM 49.3 °F - 40.1 °F 71% 29.97 in 10.0 mi NNE 6.9 mph - N/A   Clear
7:14 AM 50.7 °F - 40.3 °F 67% 29.97 in 10.0 mi NNE 5.8 mph - N/A   Clear
7:34 AM 52.5 °F - 39.4 °F 61% 29.97 in 10.0 mi NNE 4.6 mph - N/A   Clear
7:54 AM 54.1 °F - 40.1 °F 59% 29.98 in 10.0 mi North 3.5 mph - N/A   Clear
8:14 AM 53.6 °F - 40.8 °F 62% 29.98 in 10.0 mi North 3.5 mph - N/A   Clear
8:34 AM 55.4 °F - 40.8 °F 58% 29.97 in 10.0 mi North 3.5 mph - N/A   Clear
8:54 AM 56.8 °F - 39.7 °F 53% 29.99 in 10.0 mi NE 8.1 mph - N/A   Clear
9:14 AM 56.3 °F - 39.2 °F 53% 30.00 in 10.0 mi East 3.5 mph - N/A   Clear
9:34 AM 57.2 °F - 39.2 °F 51% 30.00 in 10.0 mi East 6.9 mph - N/A   Clear
9:54 AM 58.3 °F - 39.7 °F 50% 30.00 in 10.0 mi East 8.1 mph - N/A   Clear
10:14 AM 58.8 °F - 40.3 °F 50% 30.00 in 10.0 mi East 8.1 mph - N/A   Clear
10:34 AM 59.4 °F - 41.2 °F 51% 30.00 in 10.0 mi East 4.6 mph - N/A   Clear
10:54 AM 61.5 °F - 41.5 °F 48% 30.00 in 10.0 mi East 9.2 mph - N/A   Clear
11:14 AM 62.1 °F - 42.1 °F 48% 29.99 in 10.0 mi East 8.1 mph - N/A   Clear
11:33 AM 61.9 °F - 41.9 °F 48% 30.00 in 10.0 mi East 8.1 mph - N/A   Clear
11:54 AM 63.9 °F - 41.5 °F 44% 29.99 in 10.0 mi East 6.9 mph - N/A   Clear
12:14 PM 63.7 °F - 39.7 °F 41% 29.99 in 10.0 mi East 5.8 mph - N/A   Clear
12:34 PM 65.3 °F - 36.0 °F 34% 29.98 in 10.0 mi ESE 5.8 mph - N/A   Clear
12:54 PM 65.8 °F - 36.3 °F 34% 29.98 in 10.0 mi Calm Calm - N/A   Clear
1:14 PM 66.2 °F - 38.8 °F 37% 29.97 in 10.0 mi SSE 3.5 mph - N/A   Clear
1:34 PM 67.1 °F - 38.3 °F 35% 29.97 in 10.0 mi SSE 4.6 mph - N/A   Clear
1:54 PM 69.3 °F - 36.7 °F 30% 29.96 in 10.0 mi SSE 6.9 mph - N/A   Clear
2:14 PM 69.1 °F - 36.5 °F 30% 29.96 in 10.0 mi SSE 8.1 mph - N/A   Clear
2:33 PM 67.8 °F - 30.9 °F 25% 29.95 in 10.0 mi SSE 9.2 mph - N/A   Clear
2:54 PM 68.0 °F - 33.6 °F 28% 29.94 in 10.0 mi SE 4.6 mph - N/A   Clear
3:14 PM 66.9 °F - 37.8 °F 34% 29.94 in 10.0 mi South 4.6 mph - N/A   Clear
3:33 PM 67.5 °F - 36.0 °F 31% 29.93 in 10.0 mi South 9.2 mph - N/A   Clear
3:54 PM 68.5 °F - 35.2 °F 29% 29.93 in 10.0 mi SSE 5.8 mph - N/A   Clear
4:14 PM 69.3 °F - 36.1 °F 30% 29.92 in 10.0 mi SSE 6.9 mph - N/A   Clear
4:34 PM 68.7 °F - 35.6 °F 30% 29.92 in 10.0 mi SSE 10.4 mph - N/A   Clear
4:54 PM 69.3 °F - 36.3 °F 30% 29.91 in 10.0 mi SSE 9.2 mph - N/A   Clear
5:14 PM 69.4 °F - 36.9 °F 30% 29.91 in 10.0 mi SSE 9.2 mph - N/A   Clear
5:34 PM 69.3 °F - 36.9 °F 30% 29.90 in 10.0 mi SSE 9.2 mph - N/A   Clear
5:54 PM 69.3 °F - 38.7 °F 33% 29.91 in 10.0 mi NNW 3.5 mph - N/A   Clear
6:14 PM 70.0 °F - 37.2 °F 30% 29.91 in 10.0 mi SW 3.5 mph - N/A   Clear
6:34 PM 69.8 °F - 36.1 °F 29% 29.91 in 10.0 mi Calm Calm - N/A   Clear
6:54 PM 70.0 °F - 35.2 °F 28% 29.91 in 10.0 mi Calm Calm - N/A   Clear
7:14 PM 69.8 °F - 35.1 °F 28% 29.91 in 10.0 mi Calm Calm - N/A   Clear
7:34 PM 69.8 °F - 34.7 °F 27% 29.91 in 10.0 mi Calm Calm - N/A   Clear
7:54 PM 68.0 °F - 38.8 °F 34% 29.91 in 10.0 mi East 3.5 mph - N/A   Clear
8:14 PM 65.3 °F - 39.6 °F 39% 29.92 in 10.0 mi Calm Calm - N/A   Clear
8:34 PM 63.9 °F - 40.1 °F 42% 29.92 in 10.0 mi Calm Calm - N/A   Clear
8:54 PM 61.5 °F - 42.4 °F 50% 29.93 in 10.0 mi SSW 4.6 mph - N/A   Clear
9:14 PM 61.0 °F - 42.3 °F 50% 29.93 in 10.0 mi SW 5.8 mph - N/A   Clear
9:34 PM 59.2 °F - 43.2 °F 55% 29.93 in 10.0 mi WSW 4.6 mph - N/A   Clear
9:54 PM 56.5 °F - 42.4 °F 59% 29.93 in 10.0 mi Calm Calm - N/A   Clear
10:14 PM 55.8 °F - 39.9 °F 55% 29.94 in 10.0 mi SSE 4.6 mph - N/A   Clear
10:34 PM 55.2 °F - 39.0 °F 54% 29.94 in 10.0 mi South 4.6 mph - N/A   Clear
10:54 PM 53.6 °F - 40.3 °F 61% 29.95 in 10.0 mi Calm Calm - N/A   Clear
11:13 PM 53.2 °F - 40.5 °F 62% 29.95 in 10.0 mi East 3.5 mph - N/A   Clear
11:34 PM 53.8 °F - 40.3 °F 60% 29.95 in 10.0 mi Calm Calm - N/A   Clear
11:54 PM 52.7 °F - 41.0 °F 64% 29.95 in 10.0 mi NNE 4.6 mph - N/A   Clear